Location: Red Rock Farm
(35.2100°N, 97.2200°W)
Time: 20:01:02
(UTC-06:00)

ISS - All Passes

Search period start: 18 February 2018 00:00
Search period end: 28 February 2018 00:00
Orbit: 403 x 407 km, 51.6° (Epoch: 19 February)

Date Brightness Start Highest point End Pass type
(mag) Time Alt. Az. Time Alt. Az. Time Alt. Az.
18 Feb - 09:14:24 10° SW 09:17:38 67° SE 09:20:53 10° NE daylight
18 Feb - 10:52:29 10° WNW 10:54:25 15° NNW 10:56:20 10° N daylight
18 Feb - 15:45:12 10° NNW 15:47:47 21° NNE 15:50:20 10° E daylight
18 Feb - 17:21:18 10° WNW 17:24:19 34° SW 17:27:19 10° SSE daylight
19 Feb - 08:22:39 10° SSW 08:25:32 29° SE 08:28:26 10° ENE daylight
19 Feb - 09:59:20 10° W 10:02:01 23° NNW 10:04:43 10° NNE daylight
19 Feb - 14:53:40 10° N 14:55:21 13° NNE 14:57:02 10° ENE daylight
19 Feb - 16:28:56 10° NW 16:32:12 80° SW 16:35:27 10° SE daylight
20 Feb - 07:31:39 10° SSE 07:33:30 14° SE 07:35:21 10° E daylight
20 Feb - 09:06:34 10° WSW 09:09:41 42° NW 09:12:50 10° NE daylight
20 Feb - 15:36:48 10° NW 15:39:59 47° NE 15:43:08 10° ESE daylight
20 Feb - 17:14:34 10° W 17:16:07 13° SW 17:17:40 10° SSW daylight
21 Feb - 08:14:11 10° SW 08:17:27 89° ESE 08:20:44 10° NE daylight
21 Feb - 09:52:49 10° NW 09:54:20 13° NNW 09:55:51 10° N daylight
21 Feb - 14:44:52 10° NNW 14:47:39 25° NE 14:50:25 10° E daylight
21 Feb - 16:21:17 10° WNW 16:24:05 26° SW 16:26:52 10° S daylight
22 Feb - 07:22:14 10° SSW 07:25:17 39° SE 07:28:22 10° ENE daylight
22 Feb - 08:59:24 10° W 09:01:52 19° NNW 09:04:21 10° NNE daylight
22 Feb - 13:53:10 10° N 13:55:14 15° NNE 13:57:17 10° ENE daylight
22 Feb - 15:28:44 10° NW 15:31:58 59° SW 15:35:09 10° SE daylight
23 Feb - 06:30:50 10° S 06:33:11 18° SE 06:35:33 10° E visible
23 Feb - 08:06:28 10° WSW 08:09:29 33° NW 08:12:30 10° NNE daylight
23 Feb - 13:02:13 10° NNE 13:02:42 10° NNE 13:03:11 10° NNE daylight
23 Feb - 14:36:30 10° NW 14:39:44 62° NE 14:42:57 10° ESE daylight
24 Feb - 07:13:55 10° SW 07:17:10 69° NW 07:20:26 10° NE daylight
24 Feb - 08:53:14 10° NW 08:54:09 11° NNW 08:55:04 10° N daylight
24 Feb - 13:44:27 10° NNW 13:47:24 31° NE 13:50:21 10° E daylight
24 Feb - 15:21:14 10° W 15:23:43 20° SW 15:26:13 10° S daylight
25 Feb - 06:21:45 10° SSW 06:24:56 52° SE 06:28:08 10° ENE visible
25 Feb - 07:59:25 10° WNW 08:01:37 17° NNW 08:03:49 10° NNE daylight
25 Feb - 12:52:37 10° NNW 12:54:58 18° NNE 12:57:20 10° ENE daylight
25 Feb - 14:28:28 10° WNW 14:31:35 43° SW 14:34:42 10° SSE daylight
26 Feb - 05:30:04 10° S 05:32:45 24° SE 05:35:28 10° ENE visible
26 Feb - 07:06:17 10° W 07:09:09 27° NW 07:12:01 10° NNE daylight
26 Feb - 12:01:09 10° N 12:02:26 12° NNE 12:03:44 10° NE daylight
26 Feb - 13:36:05 10° NW 13:39:21 82° NE 13:42:37 10° SE daylight
27 Feb - 04:39:29 10° SSE 04:40:39 12° SE 04:41:51 10° ESE visible
27 Feb - 06:13:34 10° WSW 06:16:46 52° NW 06:19:59 10° NE visible
27 Feb - 12:43:56 10° NNW 12:47:02 38° NE 12:50:06 10° ESE daylight
27 Feb - 14:21:10 10° W 14:23:15 16° SW 14:25:19 10° SSW daylight
